Regional Weather Roundup
Issued by NWS Bismarck, ND

Home | Current Version | Previous Version | Text Only | Print | Product List | Glossary On
Versions: 1 2 3 4 5 6 7 8 9 10 11 12 13 14 15 16 17 18 19 20 21 22 23 24 25 26 27 28 29 30 31 32 33 34 35 36 37 38 39 40 41 42 43 44 45 46 47 48 49 50
000
ASUS43 KBIS 291802
RWRBIS

NWR BROADCAST TEXT
NATIONAL WEATHER SERVICE BISMARCK ND
100 PM CDT FRI MAY 29 2015

NOTE: "FAIR" INDICATES FEW OR NO CLOUDS BELOW 12,000 FEET WITH NO
SIGNIFICANT WEATHER AND/OR OBSTRUCTIONS TO VISIBILITY.


CITY           SKY/WX    TMP DP  RH WIND       PRES   REMARKS
WILLISTON      MOSUNNY   52  32  46 N5G18     30.32F
MINOT          CLOUDY    47  34  60 N15       30.29S
MINOT AFB      CLOUDY    47  39  73 N13       30.29S
BISMARCK       CLOUDY    52  35  52 N17G23    30.26R
DICKINSON      CLOUDY    50  34  54 N15G23    30.28R
GARRISON         N/A     49  32  52 N14G21    30.28S
HETTINGER ARPT PTSUNNY   50  36  58 N16G24    30.28S
JAMESTOWN      CLOUDY    51  40  65 N24G32    30.18R
CARRINGTON     CLOUDY    48  37  66 N24G30    30.23R
OAKES            N/A     48  45  87 N21G28    30.14R
STANLEY        CLOUDY    46  37  71 NE12      30.31R
$$

CITY           SKY/WX    TMP DP  RH WIND       PRES   REMARKS
GRAND FORKS    CLOUDY    47  37  68 N23G31    30.19R
GRAND FORKS AF CLOUDY    49  36  61 N25       30.19R
DEVILS LAKE    CLOUDY    48  34  57 N18G25    30.23R
FARGO          CLOUDY    48  41  76 N28G33    30.14R
GRAFTON        MOCLDY    48  39  71 N22G32    30.21R
LANGDON        CLOUDY    46  36  66 N20G29    30.23S
ROLLA          MOCLDY    46  36  66 N21G26    30.27R
$$

CITY           SKY/WX    TMP DP  RH WIND       PRES   REMARKS
ABERDEEN       CLOUDY    52  45  77 N25G33    30.13S
MOBRIDGE       CLOUDY    52  44  74 N18G28    30.17S
BUFFALO          N/A     51  36  56 N15       30.21S
RAPID CITY     LGT RAIN  47  45  93 N21G30    30.24R FOG
GLASGOW        MOSUNNY   53  33  46 E6        30.34F
SIDNEY         SUNNY     54  30  40 NW10      30.32S
WOLF POINT     MOSUNNY   53  33  46 VRB5      30.35F
GLENDIVE       SUNNY     52  34  50 N6        30.33S
MILES CITY     SUNNY     54  31  41 VRB3      30.32F
BAKER          MOSUNNY   53  35  50 N10       30.30S
$$

CITY           SKY/WX    TMP DP  RH WIND       PRES   REMARKS
BILLINGS       CLOUDY    51  42  71 NE6       30.33S
GREAT FALLS    CLOUDY    54  46  74 E5        30.23F
$$



USA.gov is the U.S. government's official web portal to all federal, state and local government web resources and services.